SBM122 MYGF-MYNN

Flight info

Callsign SBM122
Flight time N/A
Altitude 15000
Route DCT ZFP BR63V HANKX/N0278F140 BR63V ZQA DCT
Aircraft SF34/M-SDFGR/S

Departure

Time N/A
Airport Grand Bahama International Airport (MYGF)

Arrival

Time 2026-05-03 20:34
Airport Lynden Pindling International Airport (MYNN)
Time Latitude Longitude Altitude Speed Heading
2026-05-03 20:15 25.80447 -77.64996 14991 ft 300 kts 130°
2026-05-03 20:17 25.80174 -77.64618 14991 ft 300 kts 130°
2026-05-03 20:17 25.78854 -77.62798 14986 ft 300 kts 130°
2026-05-03 20:17 25.77548 -77.60997 14983 ft 300 kts 130°
2026-05-03 20:17 25.76244 -77.59199 14982 ft 300 kts 130°
2026-05-03 20:18 25.74930 -77.57388 14982 ft 300 kts 130°
2026-05-03 20:18 25.73630 -77.55598 14982 ft 300 kts 130°
2026-05-03 20:18 25.72324 -77.53800 14982 ft 300 kts 130°
2026-05-03 20:18 25.71001 -77.51980 14983 ft 300 kts 130°
2026-05-03 20:19 25.69644 -77.50236 14960 ft 300 kts 140°
2026-05-03 20:19 25.67881 -77.49166 14730 ft 290 kts 163°
2026-05-03 20:19 25.65934 -77.48707 14434 ft 283 kts 174°
2026-05-03 20:19 25.64009 -77.48486 14129 ft 276 kts 177°
2026-05-03 20:20 25.62119 -77.48336 13826 ft 272 kts 178°
2026-05-03 20:20 25.60241 -77.48208 13524 ft 269 kts 178°
2026-05-03 20:20 25.58384 -77.48088 13217 ft 264 kts 178°
2026-05-03 20:20 25.56579 -77.47974 12916 ft 260 kts 178°
2026-05-03 20:21 25.54784 -77.47862 12615 ft 258 kts 178°
2026-05-03 20:21 25.52993 -77.47751 12313 ft 256 kts 178°
2026-05-03 20:21 25.51242 -77.47643 12016 ft 255 kts 178°
2026-05-03 20:21 25.49474 -77.47533 11681 ft 251 kts 178°
2026-05-03 20:22 25.47774 -77.47428 11258 ft 239 kts 178°
2026-05-03 20:22 25.46160 -77.47327 10846 ft 231 kts 178°
2026-05-03 20:22 25.44584 -77.47231 10435 ft 224 kts 178°
2026-05-03 20:22 25.43058 -77.47136 10030 ft 219 kts 178°
2026-05-03 20:23 25.41550 -77.47038 9622 ft 216 kts 175°
2026-05-03 20:23 25.40080 -77.46598 9239 ft 229 kts 160°
2026-05-03 20:23 25.38564 -77.45879 8869 ft 243 kts 156°
2026-05-03 20:23 25.37008 -77.45093 8492 ft 252 kts 156°
2026-05-03 20:24 25.35395 -77.44280 8173 ft 255 kts 156°
2026-05-03 20:24 25.33789 -77.43474 7880 ft 257 kts 156°
2026-05-03 20:24 25.32148 -77.42649 7583 ft 258 kts 156°
2026-05-03 20:24 25.30521 -77.41831 7290 ft 259 kts 156°
2026-05-03 20:25 25.28895 -77.41016 6995 ft 259 kts 156°
2026-05-03 20:25 25.27236 -77.40183 6695 ft 260 kts 156°
2026-05-03 20:25 25.25601 -77.39363 6399 ft 260 kts 155°
2026-05-03 20:25 25.23971 -77.38545 6129 ft 259 kts 155°
2026-05-03 20:26 25.22328 -77.37721 5953 ft 255 kts 155°
2026-05-03 20:26 25.20737 -77.36923 5778 ft 252 kts 155°
2026-05-03 20:26 25.19138 -77.36121 5601 ft 251 kts 155°
2026-05-03 20:26 25.17565 -77.35335 5500 ft 244 kts 155°
2026-05-03 20:27 25.16044 -77.34572 5492 ft 236 kts 156°
2026-05-03 20:27 25.14581 -77.33840 5273 ft 228 kts 155°
2026-05-03 20:27 25.13162 -77.33131 4854 ft 221 kts 155°
2026-05-03 20:27 25.11785 -77.32439 4446 ft 215 kts 155°
2026-05-03 20:28 25.10442 -77.31767 4037 ft 211 kts 156°
2026-05-03 20:28 25.09118 -77.31107 3612 ft 209 kts 155°
2026-05-03 20:28 25.07802 -77.30447 3185 ft 208 kts 155°
2026-05-03 20:28 25.06489 -77.29791 2759 ft 206 kts 155°
2026-05-03 20:29 25.05178 -77.29236 2491 ft 197 kts 171°
2026-05-03 20:29 25.03943 -77.29495 2481 ft 175 kts 212°
2026-05-03 20:29 25.03085 -77.30412 2500 ft 170 kts 234°
2026-05-03 20:29 25.02405 -77.31469 2505 ft 169 kts 237°
2026-05-03 20:30 25.01696 -77.32587 2533 ft 194 kts 237°
2026-05-03 20:30 25.00895 -77.33890 2526 ft 207 kts 238°
2026-05-03 20:30 25.00109 -77.35160 2285 ft 196 kts 237°
2026-05-03 20:30 24.99415 -77.36379 2053 ft 181 kts 251°
2026-05-03 20:31 24.99134 -77.37690 1816 ft 170 kts 262°
2026-05-03 20:31 24.98940 -77.38905 1638 ft 150 kts 262°
2026-05-03 20:31 24.98803 -77.39957 1471 ft 129 kts 269°
2026-05-03 20:31 24.98960 -77.40872 1233 ft 115 kts 303°
2026-05-03 20:32 24.99503 -77.41460 966 ft 109 kts 324°
2026-05-03 20:32 25.00117 -77.42011 838 ft 109 kts 323°
2026-05-03 20:32 25.00681 -77.42590 703 ft 109 kts 319°
2026-05-03 20:32 25.01207 -77.43177 528 ft 107 kts 317°
2026-05-03 20:33 25.01733 -77.43753 364 ft 106 kts 317°
2026-05-03 20:33 25.02267 -77.44352 269 ft 109 kts 319°
2026-05-03 20:33 25.02796 -77.44923 105 ft 103 kts 319°
2026-05-03 20:33 25.03300 -77.45481 33 ft 103 kts 318°
2026-05-03 20:34 25.03815 -77.46051 28 ft 109 kts 317°
2026-05-03 20:34 25.04346 -77.46635 23 ft 87 kts 315°
2026-05-03 20:34 25.04514 -77.46806 23 ft 11 kts 324°
2026-05-03 20:34 25.04473 -77.46771 23 ft 10 kts 120°
2026-05-03 20:35 25.04486 -77.46704 23 ft 13 kts 50°
2026-05-03 20:35 25.04579 -77.46649 23 ft 19 kts 334°
2026-05-03 20:35 25.04669 -77.46733 23 ft 12 kts 321°
2026-05-03 20:35 25.04717 -77.46728 23 ft 3 kts 44°
2026-05-03 20:36 25.04742 -77.46702 23 ft 8 kts 42°
2026-05-03 20:36 25.04786 -77.46649 23 ft 10 kts 71°
2026-05-03 20:36 25.04765 -77.46599 23 ft 3 kts 151°
2026-05-03 20:36 25.04738 -77.46595 23 ft 1 kts 179°